Weather in Nikolsk

Russia / Republic of Buryatia     51°11′31″N   108°19′27″E
temp.,
°C
wind,
m/s
gust,
m/s
humid.,
%
clouds,
%
prec.,
mm/h
press.,
hPa
HPBL,
m
6 december, mon
mon623:00−17nw009979 0.0 10369
02:00−18ene119976 0.0 103410
05:00−17ene119972 0.0 103211
08:00−17ene119759 0.0 103011
11:00−11w01865 0.0 102853
14:00−9wsw23845 0.0 1026119
17:00−15w019417 0.0 10299
20:00−17ene11975 0.0 10319
7 december, tue
tue723:00−18ene119840 0.0 10319
02:00−18ene119748 0.0 103210
05:00−18e119541 0.0 10329
08:00−18ene119526 0.0 103310
11:00−12e00805 0.0 103040
14:00−8nw11755 0.0 102756
17:00−14ne11865 0.0 102810
20:00−16ene11925 0.0 10289
8 december, wed
wed823:00−17e22945 0.0 102811
02:00−17ene229529 0.0 102711
05:00−17ene2295100 0.0 102515
08:00−17ene1194100 0.0 102411
11:00−12wsw1182100 0.0 102350
14:00−10sw2382100 0.0 1021119
17:00−14wsw119472 0.0 102410
20:00−17w119510 0.0 10289
9 december, thu
thu923:00−18sw1196100 0.0 10319
02:00−13wsw2498100 0.0 103197
05:00−14wsw249668 0.0 1033113
08:00−16wnw119991 0.0 10369
11:00−13wsw119592 0.0 103672
14:00−11wsw118989 0.0 1034112
17:00−16ene1197100 0.0 10369
20:00−17ene1197100 0.0 10389
10 december, fri
fri1023:00−16e119884 0.1 103810
02:00−17n1199100 0.1 10409
05:00−19ene00100100 0.0 10419
08:00−21ne0010093 0.0 10429
11:00−16ssw009284 0.0 104247
14:00−14sw118368 0.0 1039110
17:00−20ene00985 0.0 10409
20:00−22ene119826 0.0 10419